This is the latest recevied weather packets stored in our database for station/object WA4IKQ. If no packets are shown the sender has not sent any weather packets the latest 10 day(s).
| Time | Temp. | Humidity | Pressure | Rain* | Wind** | Luminosity | Snow |
|---|---|---|---|---|---|---|---|
| 1777794859 | 18.33° C | 93% | 1014.5 hPa | 0 mm | 0 m/s | - | - |
| 1777794822 | 18.33° C | 93% | 1014.5 hPa | 0 mm | 0 m/s | - | - |
| 1777794605 | 18.33° C | 93% | 1014.5 hPa | 0 mm | 0 m/s | - | - |
| 1777794263 | 18.33° C | 93% | 1014.5 hPa | 0 mm | 0 m/s | - | - |
| 1777794167 | 18.89° C | 93% | 1014.4 hPa | 0 mm | 0.89 m/s, 15° | - | - |
| 1777794107 | 18.89° C | 93% | 1014.4 hPa | 0 mm | 0.89 m/s, 15° | - | - |
| 1777793957 | 18.89° C | 93% | 1014.4 hPa | 0 mm | 0.89 m/s, 15° | - | - |
| 1777793889 | 18.33° C | 93% | 1014.6 hPa | 0 mm | 0.89 m/s, 287° | - | - |
| 1777793659 | 18.33° C | 93% | 1014.6 hPa | 0 mm | 0.89 m/s, 287° | - | - |
| 1777793599 | 18.33° C | 93% | 1014.5 hPa | 0 mm | 2.68 m/s, 291° | - | - |
| 1777793363 | 18.33° C | 93% | 1014.5 hPa | 0 mm | 2.68 m/s, 291° | - | - |
| 1777793173 | 18.33° C | 93% | 1014.4 hPa | 0 mm | 0.45 m/s, 316° | - | - |
| 1777793058 | 18.33° C | 93% | 1014.4 hPa | 0 mm | 0.45 m/s, 316° | - | - |
| 1777792903 | 18.89° C | 93% | 1014.4 hPa | 0 mm | 0.45 m/s, 323° | - | - |
| 1777792759 | 18.89° C | 93% | 1014.4 hPa | 0 mm | 0.45 m/s, 323° | - | - |
| 1777792688 | 18.89° C | 93% | 1014.4 hPa | 0 mm | 0.89 m/s, 325° | - | - |
| 1777792465 | 18.89° C | 93% | 1014.4 hPa | 0 mm | 1.34 m/s, 349° | - | - |
| 1777792458 | 18.89° C | 93% | 1014.4 hPa | 0 mm | 0.89 m/s, 325° | - | - |
| 1777792166 | 18.89° C | 93% | 1014.4 hPa | 0 mm | 1.34 m/s, 349° | - | - |
| 1777791797 | 18.89° C | 93% | 1014.4 hPa | 0 mm | 4.02 m/s, 293° | - | - |
| 1777791559 | 18.89° C | 93% | 1014.4 hPa | 0 mm | 4.02 m/s, 293° | - | - |
| 1777791424 | 18.89° C | 93% | 1014.3 hPa | 0 mm | 0 m/s | - | - |
| 1777791259 | 18.89° C | 93% | 1014.3 hPa | 0 mm | 0 m/s | - | - |
| 1777791099 | 18.33° C | 93% | 1014.2 hPa | 0 mm | 1.34 m/s, 304° | - | - |
| 1777790853 | 18.89° C | 93% | 1014.1 hPa | 0 mm | 0 m/s | - | - |
* Rain latest hour (hover to see other rain measurements)
** Current wind speed in m/s (hover to see current wind gust speed)